Back to catalog

SCOUT X-4 R/B

AliveUNKNOWN
NORAD 721·ROCKET BODY·🇺🇸 United States

Launched Dec 19, 1963 from Vandenberg Space Force Base

Loading…

Next Passes (next 24 hours)

TLE

FreshSource: Space-Track

Epoch: Sep 14, 2026, 14:23 UTC

1 00721U 63053B   26257.59974697  .00000286  00000-0  16933-3 0  9996
2 00721  78.6046  22.6076 1088053 226.5772 123.9640 12.55150935861277

Track SCOUT X-4 R/B in real time with AllMySat

Download on the App Store